This demonstration page uses our WeatherBlox Daily Observations layout. Learn more.

Left ArrowRight Arrow

41.86663, -103.66717

Hourly Observations for March 2, 2016

Temp ( °F °C ) Dew Point ( °F °C ) Humidity (%) Winds ( mph kmh ) Pressure ( in mb ) Visibility ( mi km ) Precip ( " mm )
12:53 am 00:53 Clear 38 3.3 26 -3.3 62 62 ENE 7 11 29.86 1011 10 16 N/A
1:53 am 01:53 Clear 36 2.2 25 -3.9 64 64 E 8 13 29.83 1010 10 16 N/A
2:53 am 02:53 Clear 34 1.1 24 -4.4 67 67 ESE 3 6 29.80 1009 10 16 N/A
3:53 am 03:53 Clear 34 1.1 24 -4.4 67 67 E 5 7 29.78 1009 10 16 N/A
4:53 am 04:53 Clear 32 undefined 24 -4.4 73 73 NE 3 6 29.78 1009 10 16 N/A
5:53 am 05:53 Clear 33 0.6 24 -4.4 70 70 E 5 7 29.78 1009 10 16 N/A
6:53 am 06:53 Cloudy 35 1.7 27 -2.8 72 72 E 7 11 29.78 1008 10 16 N/A
7:53 am 07:53 Mostly Cloudy 39 3.9 29 -1.7 67 67 N N/A 29.77 1008 10 16 N/A
8:53 am 08:53 Cloudy 51 10.6 32 undefined 48 48 W 21 33 29.74 1007 10 16 N/A
9:53 am 09:53 Sunny 54 12.2 31 -0.6 42 42 W 20 31 29.73 1007 10 16 N/A
10:53 am 10:53 Sunny 59 15 28 -2.2 31 31 WNW 21 33 29.72 1006 10 16 N/A
11:53 am 11:53 Sunny 63 17.2 23 -5 22 22 WNW 21 33 29.69 1006 10 16 N/A
12:53 pm 12:53 Partly Cloudy 63 17.2 16 -8.9 16 16 WNW 23 37 29.67 1005 10 16 N/A
1:53 pm 13:53 Partly Cloudy 60 15.6 15 -9.4 17 17 WNW 20 31 29.69 1005 10 16 N/A
2:53 pm 14:53 Mostly Cloudy 59 15 21 -6.1 23 23 NW 23 37 29.70 1006 10 16 N/A
3:53 pm 15:53 Sunny 56 13.3 28 -2.2 34 34 NNW 20 31 29.74 1007 10 16 N/A
4:53 pm 16:53 Cloudy 53 11.7 27 -2.8 37 37 N 18 30 29.79 1009 10 16 N/A
5:53 pm 17:53 Cloudy 48 8.9 30 -1.1 50 50 N 16 26 29.86 1011 10 16 N/A
6:53 pm 18:53 Mostly Cloudy 48 8.9 22 -5.6 36 36 N 16 26 29.90 1012 10 16 N/A
7:53 pm 19:53 Partly Cloudy 42 5.6 29 -1.7 60 60 WNW 5 7 29.95 1014 10 16 N/A
8:53 pm 20:53 Mostly Cloudy 40 4.4 29 -1.7 65 65 NW 8 13 29.99 1016 10 16 N/A
9:53 pm 21:53 Cloudy 38 3.3 28 -2.2 68 68 NW 7 11 30.02 1017 10 16 N/A
10:53 pm 22:53 Mostly Cloudy 38 3.3 26 -3.3 62 62 W 7 11 30.04 1017 10 16 N/A
11:53 pm 23:53 Partly Cloudy 36 2.2 25 -3.9 64 64 W 8 13 30.04 1017 10 16 N/A

Powered by AerisWeather